Regional Weather Roundup
Issued by NWS

Home | Current Version | Previous Version | Graphics & Text | Print | Product List | Glossary On
Versions: 1 2 3 4 5 6 7 8 9 10 11 12 13 14 15 16 17 18 19 20 21 22 23 24 25 26 27 28 29 30 31 32 33 34 35 36 37 38 39 40 41 42 43 44 45 46 47 48 49 50
000
ASUS44 KMEG 230710
RWRTN
TENNESSEE HOURLY STATE WEATHER ROUNDUP
NATIONAL WEATHER SERVICE MEMPHIS TN
200 AM CDT WED APR 23 2014

TNZ002-004-019-021-049-052-054-088>092-230800-
WEST TENNESSEE

CITY           SKY/WX    TMP DP  RH WIND       PRES   REMARKS
MEMPHIS INTL   CLEAR     59  41  51 NE6       29.97R
NWS MEMPHIS      N/A     57 N/A N/A MISG        N/A
JACKSON        CLEAR     51  38  60 CALM      29.97S
DYERSBURG      CLEAR     52  36  54 CALM      29.99S
UNION CITY     CLEAR     52  39  62 N5        29.97S
PARIS          CLEAR     45  37  73 NE3       29.97S
LEXINGTON      CLEAR     52  39  62 CALM      29.95S
SAVANNAH       CLEAR     48  46  93 CALM      29.96F
$$

TNZ008-025-027-028-033-062-065-066-230800-
NORTH MIDDLE TENNESSEE

CITY           SKY/WX    TMP DP  RH WIND       PRES   REMARKS
NASHVILLE      CLEAR     55  39  54 N5        29.96S
DICKSON        CLEAR     52  36  54 N5        29.96F
PORTLAND       CLEAR     46  39  76 CALM      29.95S
CLARKSVILLE    CLEAR     47  39  74 N3        29.97S
SMYRNA         CLEAR     51  41  69 CALM      29.96S
MURFREESBORO   CLEAR     50  43  77 CALM      29.95S
COOKEVILLE     CLEAR     46  39  76 CALM      29.93F
LIVINGSTON     CLEAR     51  35  54 NE6       29.95S
GALLATIN       CLEAR     51  39  63 CALM      29.96F
CROSSVILLE     CLEAR     52  35  52 N6        29.94S
$$

TNZ061-075-076-078-094-096-097-230800-
SOUTH MIDDLE TENNESSEE

CITY           SKY/WX    TMP DP  RH WIND       PRES   REMARKS
LEWISBURG      CLEAR     45  43  93 CALM      29.95F
FAYETTEVILLE   CLEAR     54  40  59 N12       29.94S
TULLAHOMA      CLEAR     52  39  62 N6        29.95S
WINCHESTER     CLEAR     52  41  66 CALM      29.95R
MCMINNVILLE    CLEAR     52  39  62 N5        29.94F
COLUMBIA       CLEAR     48  46  93 CALM      29.94F
SHELBYVILLE    CLEAR     52  45  76 CALM      29.96S
$$

TNZ017-018-042-046-047-230800-
NORTHEAST TENNESSEE

CITY           SKY/WX    TMP DP  RH WIND       PRES   REMARKS
TRI CITIES     PTCLDY    55  32  41 N13       29.87R
ELIZABETHTON   SUNNY     54  37  54 CALM      29.86S
$$

TNZ012-013-036-069-073-074-230800-
CENTRAL EAST TENNESSEE

CITY           SKY/WX    TMP DP  RH WIND       PRES   REMARKS
KNOXVILLE      CLEAR     57  37  47 N7        29.89R
OAK RIDGE      CLEAR     55  39  54 CALM      29.92R
$$

TNZ083-085-099-230800-
SOUTHEAST TENNESSEE

CITY           SKY/WX    TMP DP  RH WIND       PRES   REMARKS
CHATTANOOGA    CLEAR     58  45  62 N6        29.91S
$$

SKY/WX REPORTED AS FAIR MEANS FEW OR NO CLOUDS BELOW
12 THOUSAND FEET.




USA.gov is the U.S. government's official web portal to all federal, state and local government web resources and services.